• In Deutschland
  • Länderverzeichnis
  • Für 7 Tage
  • Wassertemperatur
  • Satellitenkarten
  • Wetterkarte
  • Widgets
  • user-avatar
    Anmelden

    Stündliche Wetter Brisbane

    Heute, 25 Mai, Donnerstag

    Zeit Temperatur Niederschläge Wind Luftdruck Luftfeuchtigkeit
    00:00 +18°C° 0 mm 3 m/S 761 mmHg 74%
    01:00 +18°C° 0 mm 3 m/S 761 mmHg 72%
    02:00 +17°C° 0 mm 3 m/S 761 mmHg 75%
    03:00 +17°C° 0 mm 4 m/S 761 mmHg 78%
    04:00 +15°C° 0 mm 4 m/S 761 mmHg 78%
    05:00 +15°C° 0 mm 4 m/S 761 mmHg 79%
    06:00 +14°C° 0 mm 4 m/S 761 mmHg 79%
    07:00 +14°C° 0 mm 4 m/S 762 mmHg 80%
    08:00 +17°C° 0 mm 4 m/S 762 mmHg 74%
    09:00 +19°C° 0 mm 4 m/S 762 mmHg 69%
    10:00 +22°C° 0 mm 5 m/S 762 mmHg 64%
    11:00 +23°C° 0 mm 5 m/S 762 mmHg 63%
    12:00 +25°C° 0 mm 5 m/S 761 mmHg 61%
    13:00 +25°C° 0 mm 4 m/S 761 mmHg 60%
    14:00 +25°C° 0 mm 4 m/S 761 mmHg 64%
    15:00 +23°C° 0 mm 4 m/S 761 mmHg 67%
    16:00 +22°C° 0 mm 4 m/S 761 mmHg 71%
    17:00 +21°C° 0 mm 4 m/S 762 mmHg 76%
    18:00 +20°C° 0 mm 4 m/S 762 mmHg 81%
    19:00 +19°C° 0 mm 4 m/S 762 mmHg 85%
    20:00 +18°C° 0 mm 3 m/S 763 mmHg 87%
    21:00 +18°C° 0 mm 3 m/S 763 mmHg 88%
    22:00 +17°C° 0 mm 3 m/S 763 mmHg 89%
    23:00 +17°C° 0 mm 3 m/S 763 mmHg 89%

    Morgen, 26 Mai, Freitag

    Zeit Temperatur Niederschläge Wind Luftdruck Luftfeuchtigkeit
    00:00 +17°C° 0 mm 2 m/S 763 mmHg 88%
    01:00 +17°C° 0 mm 2 m/S 763 mmHg 88%
    02:00 +17°C° 0 mm 2 m/S 763 mmHg 88%
    03:00 +17°C° 0 mm 2 m/S 763 mmHg 88%
    04:00 +16°C° 0 mm 2 m/S 763 mmHg 88%
    05:00 +16°C° 0 mm 2 m/S 763 mmHg 89%
    06:00 +16°C° 0 mm 2 m/S 763 mmHg 90%
    07:00 +16°C° 0 mm 2 m/S 763 mmHg 91%
    08:00 +18°C° 0 mm 2 m/S 764 mmHg 84%
    09:00 +20°C° 0 mm 2 m/S 764 mmHg 76%
    10:00 +23°C° 0 mm 2 m/S 764 mmHg 69%
    11:00 +24°C° 0,1 mm 2 m/S 764 mmHg 66%
    12:00 +24°C° 0,1 mm 2 m/S 763 mmHg 62%
    13:00 +25°C° 0,1 mm 2 m/S 762 mmHg 59%
    14:00 +24°C° 0 mm 2 m/S 762 mmHg 63%
    15:00 +24°C° 0 mm 2 m/S 762 mmHg 66%
    16:00 +22°C° 0 mm 3 m/S 762 mmHg 69%
    17:00 +21°C° 0 mm 3 m/S 762 mmHg 77%
    18:00 +19°C° 0 mm 2 m/S 763 mmHg 84%
    19:00 +17°C° 0 mm 2 m/S 763 mmHg 91%
    20:00 +17°C° 0 mm 2 m/S 764 mmHg 91%
    21:00 +16°C° 0 mm 2 m/S 764 mmHg 91%
    22:00 +16°C° 0 mm 1 m/S 764 mmHg 92%
    23:00 +15°C° 0 mm 1 m/S 764 mmHg 92%

    übermorgen, 27 Mai, Samstag

    Zeit Temperatur Niederschläge Wind Luftdruck Luftfeuchtigkeit
    00:00 +15°C° 0 mm 1 m/S 764 mmHg 92%
    01:00 +15°C° 0 mm 1 m/S 764 mmHg 92%
    02:00 +15°C° 0,2 mm 1 m/S 764 mmHg 93%
    03:00 +15°C° 0,2 mm 2 m/S 764 mmHg 94%
    04:00 +15°C° 0,2 mm 2 m/S 763 mmHg 94%
    05:00 +15°C° 0,1 mm 2 m/S 764 mmHg 94%
    06:00 +15°C° 0,1 mm 2 m/S 764 mmHg 94%
    07:00 +15°C° 0,1 mm 2 m/S 765 mmHg 94%
    08:00 +17°C° 0 mm 2 m/S 765 mmHg 86%
    09:00 +20°C° 0 mm 2 m/S 765 mmHg 79%
    10:00 +23°C° 0 mm 2 m/S 765 mmHg 71%
    11:00 +23°C° 0,1 mm 2 m/S 764 mmHg 67%
    12:00 +24°C° 0,1 mm 2 m/S 764 mmHg 63%
    13:00 +25°C° 0,1 mm 2 m/S 763 mmHg 59%
    14:00 +24°C° 0,1 mm 2 m/S 763 mmHg 63%
    15:00 +22°C° 0,1 mm 3 m/S 763 mmHg 67%
    16:00 +22°C° 0,1 mm 3 m/S 762 mmHg 71%
    17:00 +20°C° 0 mm 2 m/S 763 mmHg 78%
    18:00 +18°C° 0 mm 2 m/S 763 mmHg 84%
    19:00 +16°C° 0 mm 1 m/S 764 mmHg 90%
    20:00 +15°C° 0 mm 1 m/S 764 mmHg 90%
    21:00 +15°C° 0 mm 1 m/S 764 mmHg 91%
    22:00 +13°C° 0 mm 0 m/S 764 mmHg 91%
    23:00 +14°C° 0 mm 1 m/S 764 mmHg 91%

    28 Mai, Sonntag

    Zeit Temperatur Niederschläge Wind Luftdruck Luftfeuchtigkeit
    00:00 +14°C° 0 mm 1 m/S 763 mmHg 91%
    01:00 +14°C° 0 mm 1 m/S 763 mmHg 92%
    02:00 +14°C° 0 mm 1 m/S 763 mmHg 92%
    03:00 +14°C° 0 mm 2 m/S 763 mmHg 93%
    04:00 +14°C° 0 mm 2 m/S 763 mmHg 93%
    05:00 +14°C° 0 mm 2 m/S 763 mmHg 93%
    06:00 +14°C° 0 mm 2 m/S 763 mmHg 93%
    07:00 +14°C° 0 mm 1 m/S 763 mmHg 92%
    08:00 +17°C° 0 mm 2 m/S 763 mmHg 84%
    09:00 +20°C° 0 mm 2 m/S 764 mmHg 76%
    10:00 +23°C° 0 mm 2 m/S 764 mmHg 68%
    11:00 +24°C° 0 mm 2 m/S 763 mmHg 63%
    12:00 +25°C° 0 mm 3 m/S 762 mmHg 58%
    13:00 +26°C° 0 mm 3 m/S 762 mmHg 54%
    14:00 +25°C° 0,1 mm 3 m/S 761 mmHg 58%
    15:00 +25°C° 0,1 mm 3 m/S 761 mmHg 63%
    16:00 +24°C° 0,1 mm 3 m/S 761 mmHg 68%
    17:00 +22°C° 0,5 mm 3 m/S 761 mmHg 74%
    18:00 +20°C° 0,5 mm 3 m/S 762 mmHg 80%
    19:00 +18°C° 0,5 mm 3 m/S 762 mmHg 87%
    20:00 +18°C° 0,3 mm 3 m/S 762 mmHg 87%
    21:00 +17°C° 0,3 mm 3 m/S 762 mmHg 88%
    22:00 +17°C° 0,3 mm 3 m/S 763 mmHg 89%
    23:00 +16°C° 0,4 mm 3 m/S 762 mmHg 88%

    29 Mai, Montag

    Zeit Temperatur Niederschläge Wind Luftdruck Luftfeuchtigkeit
    00:00 +16°C° 0,4 mm 3 m/S 762 mmHg 87%
    01:00 +15°C° 0,4 mm 4 m/S 762 mmHg 86%
    02:00 +16°C° 0,1 mm 3 m/S 762 mmHg 85%
    03:00 +16°C° 0,1 mm 3 m/S 762 mmHg 83%
    04:00 +16°C° 0,1 mm 3 m/S 762 mmHg 82%
    05:00 +16°C° 0 mm 3 m/S 762 mmHg 82%
    06:00 +14°C° 0 mm 3 m/S 763 mmHg 82%
    07:00 +14°C° 0 mm 3 m/S 763 mmHg 82%
    08:00 +17°C° 0 mm 3 m/S 763 mmHg 73%
    09:00 +19°C° 0 mm 3 m/S 763 mmHg 64%
    10:00 +21°C° 0 mm 3 m/S 764 mmHg 55%
    11:00 +22°C° 0 mm 3 m/S 763 mmHg 49%
    12:00 +24°C° 0 mm 3 m/S 762 mmHg 44%
    13:00 +25°C° 0 mm 2 m/S 762 mmHg 38%
    14:00 +25°C° 0 mm 2 m/S 762 mmHg 43%
    15:00 +25°C° 0 mm 2 m/S 762 mmHg 48%
    16:00 +24°C° 0 mm 1 m/S 762 mmHg 54%
    17:00 +21°C° 0 mm 1 m/S 762 mmHg 58%
    18:00 +18°C° 0 mm 2 m/S 763 mmHg 63%
    19:00 +15°C° 0 mm 2 m/S 764 mmHg 68%
    20:00 +15°C° 0 mm 2 m/S 764 mmHg 67%
    21:00 +14°C° 0 mm 2 m/S 764 mmHg 66%
    22:00 +14°C° 0 mm 2 m/S 764 mmHg 64%
    23:00 +14°C° 0 mm 2 m/S 764 mmHg 65%

    30 Mai, Dienstag

    Zeit Temperatur Niederschläge Wind Luftdruck Luftfeuchtigkeit
    00:00 +14°C° 0 mm 2 m/S 764 mmHg 65%
    01:00 +13°C° 0 mm 2 m/S 764 mmHg 65%
    02:00 +12°C° 0 mm 3 m/S 764 mmHg 65%
    03:00 +12°C° 0 mm 3 m/S 764 mmHg 66%
    04:00 +12°C° 0 mm 3 m/S 764 mmHg 66%
    05:00 +11°C° 0 mm 3 m/S 765 mmHg 66%
    06:00 +11°C° 0 mm 3 m/S 765 mmHg 66%
    07:00 +11°C° 0 mm 3 m/S 766 mmHg 66%
    08:00 +15°C° 0 mm 2 m/S 766 mmHg 60%
    09:00 +18°C° 0 mm 2 m/S 766 mmHg 54%
    10:00 +20°C° 0 mm 2 m/S 766 mmHg 48%
    11:00 +21°C° 0 mm 2 m/S 765 mmHg 45%
    12:00 +23°C° 0 mm 1 m/S 764 mmHg 43%
    13:00 +24°C° 0 mm 1 m/S 764 mmHg 40%
    14:00 +24°C° 0 mm 1 m/S 764 mmHg 45%
    15:00 +23°C° 0 mm 1 m/S 764 mmHg 49%
    16:00 +23°C° 0 mm 1 m/S 764 mmHg 54%
    17:00 +20°C° 0 mm 2 m/S 764 mmHg 61%
    18:00 +17°C° 0 mm 2 m/S 765 mmHg 69%
    19:00 +15°C° 0 mm 2 m/S 765 mmHg 76%
    20:00 +14°C° 0 mm 2 m/S 765 mmHg 76%
    21:00 +14°C° 0 mm 2 m/S 765 mmHg 75%
    22:00 +14°C° 0 mm 2 m/S 766 mmHg 75%
    23:00 +13°C° 0 mm 2 m/S 765 mmHg 72%
    Mehr zeigen